Piney Island, NC

2:36 AM EST on February 21, 2018 (GMT -0500)
Piney Island

Weather History for KNBT - February, 2013

Change the Weather History Date:

Monday, February 25, 2013

  Actual Average (KMRH) Record (KMRH)
Temperature  
Mean Temperature 44 °F -  
Max Temperature 48 °F 59 °F 72 °F (2017)
Min Temperature 39 °F 38 °F 13 °F (1967)
Degree Days  
Heating Degree Days 22    
Moisture  
Dew Point 34 °F    
Average Humidity 70    
Maximum Humidity 93    
Minimum Humidity 58    
Precipitation  
Precipitation 0.01 in - - ()
Sea Level Pressure  
Sea Level Pressure 30.14 in    
Wind  
Wind Speed 15 mph (NNE)    
Max Wind Speed 20 mph    
Max Gust Speed 28 mph    
Averages and records for this station are not official NWS values.
T = Trace of Precipitation, MM = Missing Value Source: NWS Daily Summary

Daily Weather History Graph

Daily Weather History Graph

Search for Another Location

Airport or City:

Trip Planner

Search our weather history database for the weather conditions in past years. The results will help you decide how hot, cold, wet, or windy it might be!

Date:

Astronomy

Feb. 25, 2013 Rise Set
Actual Time 6:40 AM EST 5:58 PM EST
Civil Twilight 6:14 AM EST 6:23 PM EST
Nautical Twilight 5:45 AM EST 6:53 PM EST
Astronomical Twilight 5:15 AM EST 7:22 PM EST
Moon 6:06 PM EST (2/25) 6:10 AM EST (2/25)
Length of Visible Light 12h 09m
Length of Day
11h 18m
Full, 100% of the Moon is Illuminated
Feb 25
Full
Feb 25
Full
Mar 4
Last Quarter
Mar 11
New
Mar 19
First Quarter

Hourly Weather History & Observations

Time (EST) Temp. Windchill Dew Point Humidity Pressure Visibility Wind Dir Wind Speed Gust Speed Precip Events Conditions
1:56 AM 48.0 °F - 46.0 °F 93% 30.04 in - NNE 12.7 mph 19.6 mph N/A   Partly Cloudy
2:05 AM 48.2 °F - 44.6 °F 87% 30.03 in - NNE 19.6 mph 25.3 mph N/A   Mostly Cloudy
2:51 AM 44.6 °F 36.6 °F 37.4 °F 76% 30.04 in - NE 19.6 mph 27.6 mph N/A   Mostly Cloudy
2:56 AM 43.0 °F 34.5 °F 37.9 °F 82% 30.06 in - NNE 19.6 mph 27.6 mph N/A   Mostly Cloudy
3:05 AM 42.8 °F 34.3 °F 37.4 °F 81% 30.05 in - NNE 19.6 mph - N/A   Scattered Clouds
3:20 AM 42.8 °F 34.8 °F 35.6 °F 76% 30.06 in - NNE 17.3 mph 26.5 mph N/A   Mostly Cloudy
3:56 AM 43.0 °F 34.8 °F 35.1 °F 74% 30.08 in - NNE 18.4 mph 25.3 mph 0.01 in   Overcast
4:56 AM 41.0 °F 33.1 °F 32.0 °F 70% 30.09 in - North 15.0 mph 24.2 mph N/A   Mostly Cloudy
5:46 AM 41.0 °F 34.3 °F 32.0 °F 70% 30.12 in - North 11.5 mph 23.0 mph N/A   Mostly Cloudy
5:56 AM 41.0 °F 33.5 °F 32.0 °F 70% 30.13 in - North 13.8 mph 20.7 mph N/A   Overcast
6:56 AM 39.9 °F 32.5 °F 30.9 °F 70% 30.13 in - North 12.7 mph - N/A   Clear
7:56 AM 41.0 °F 33.5 °F 30.9 °F 67% 30.16 in - North 13.8 mph - N/A   Clear
8:56 AM 41.0 °F 33.9 °F 30.9 °F 67% 30.18 in - NNE 12.7 mph - N/A   Clear
9:56 AM 42.1 °F 35.7 °F 32.0 °F 67% 30.18 in - NNE 11.5 mph - N/A   Clear
10:56 AM 43.0 °F 36.8 °F 32.0 °F 65% 30.21 in - North 11.5 mph 17.3 mph N/A   Clear
11:56 AM 44.1 °F 39.0 °F 33.1 °F 65% 30.19 in - NNE 9.2 mph - N/A   Clear
12:56 PM 45.0 °F 39.7 °F 33.1 °F 63% 30.19 in - NNE 10.4 mph - N/A   Clear
1:56 PM 45.0 °F 38.5 °F 30.9 °F 58% 30.17 in - NNE 13.8 mph - N/A   Clear
2:56 PM 45.0 °F 39.3 °F 30.9 °F 58% 30.16 in - NNE 11.5 mph - N/A   Clear
3:56 PM 45.0 °F 38.2 °F 30.9 °F 58% 30.16 in - NNE 15.0 mph - N/A   Clear
4:56 PM 45.0 °F 39.3 °F 30.9 °F 58% 30.17 in - NNE 11.5 mph - N/A   Clear
5:56 PM 44.1 °F 37.7 °F 30.9 °F 60% 30.15 in - NNE 12.7 mph - N/A   Clear
6:56 PM 44.1 °F 37.7 °F 32.0 °F 63% 30.19 in - NE 12.7 mph - N/A   Clear
7:56 PM 43.0 °F 35.1 °F 30.9 °F 62% 30.19 in - NE 17.3 mph 20.7 mph N/A   Clear
8:56 PM 43.0 °F 36.0 °F 32.0 °F 65% 30.21 in - NE 13.8 mph - N/A   Clear
9:56 PM 44.1 °F 37.7 °F 35.1 °F 71% 30.19 in - ENE 12.7 mph - N/A   Overcast
10:56 PM 44.1 °F 37.1 °F 37.0 °F 76% 30.15 in - NE 15.0 mph - N/A   Overcast
11:56 PM 45.0 °F 38.5 °F 37.9 °F 76% 30.14 in - NE 13.8 mph - N/A   Clear